This is the latest recevied weather packets stored in our database for station/object OH7GGX-14. If no packets are shown the sender has not sent any weather packets the latest 10 day(s).
| Time | Temp. | Humidity | Pressure | Rain* | Wind** | Luminosity | Snow |
|---|---|---|---|---|---|---|---|
| 1777704701 | 13.89° C | 62% | 1011.7 hPa | 0 mm | - | - | - |
| 1777704101 | 13.33° C | 65% | 1011.8 hPa | 0 mm | - | - | - |
| 1777703501 | 12.78° C | 69% | 1011.9 hPa | 0 mm | - | - | - |
| 1777702901 | 12.22° C | 73% | 1011.8 hPa | 0 mm | - | - | - |
| 1777702301 | 11.11° C | 78% | 1011.8 hPa | 0 mm | - | - | - |
| 1777701701 | 10.56° C | 85% | 1011.9 hPa | 0 mm | - | - | - |
| 1777701101 | 10° C | 91% | 1011.9 hPa | 0 mm | - | - | - |
| 1777700501 | 8.89° C | 95% | 1012.1 hPa | 0 mm | - | - | - |
| 1777699901 | 8.33° C | 99% | 1012.2 hPa | 0 mm | - | - | - |
| 1777699301 | 7.78° C | 99% | 1012.2 hPa | 0 mm | - | - | - |
| 1777698701 | 7.22° C | 99% | 1012.4 hPa | 0 mm | - | - | - |
| 1777698101 | 6.11° C | 99% | 1012.3 hPa | 0 mm | - | - | - |
| 1777697501 | 5° C | 99% | 1012.5 hPa | 0 mm | - | - | - |
| 1777696901 | 4.44° C | 99% | 1012.4 hPa | 0 mm | - | - | - |
| 1777696301 | 3.89° C | 99% | 1012.4 hPa | 0 mm | - | - | - |
| 1777695701 | 3.33° C | 99% | 1012.4 hPa | 0 mm | - | - | - |
| 1777695101 | 2.78° C | 99% | 1012.5 hPa | 0 mm | - | - | - |
| 1777694501 | 2.78° C | 99% | 1012.5 hPa | 0 mm | - | - | - |
| 1777693901 | 2.22° C | 99% | 1012.5 hPa | 0 mm | - | - | - |
| 1777693301 | 1.67° C | 99% | 1012.6 hPa | 0 mm | - | - | - |
| 1777692701 | 1.67° C | 99% | 1012.6 hPa | 0 mm | - | - | - |
| 1777692101 | 1.11° C | 99% | 1012.6 hPa | 0 mm | - | - | - |
| 1777691501 | 1.11° C | 99% | 1012.6 hPa | 0 mm | - | - | - |
| 1777690901 | 0.56° C | 99% | 1012.7 hPa | 0 mm | - | - | - |
| 1777690301 | 0.56° C | 99% | 1012.7 hPa | 0 mm | - | - | - |
* Rain latest hour (hover to see other rain measurements)
** Current wind speed in m/s (hover to see current wind gust speed)